Time,TemperatureF,DewpointF,PressureIn,WindDirection,WindDirectionDegrees,WindSpeedMPH,WindSpeedGustMPH,Humidity,HourlyPrecipIn,Conditions,Clouds,dailyrainin,SoftwareType,DateUTC
2013-05-18 00:01:00,66.6,62.2,30.09,ESE,112,0.0,0.0,86,0.00,,,0.00,WUHU21623XXSP,2013-05-18 04:01:00,
2013-05-18 00:06:00,66.4,62.3,30.09,East,90,0.0,0.0,87,0.00,,,0.00,WUHU21623XXSP,2013-05-18 04:06:00,
2013-05-18 00:11:00,66.0,62.0,30.09,ESE,112,0.0,0.0,87,0.00,,,0.00,WUHU21623XXSP,2013-05-18 04:11:00,
2013-05-18 00:16:00,66.0,62.0,30.09,ESE,112,0.0,0.0,87,0.00,,,0.00,WUHU21623XXSP,2013-05-18 04:16:00,
2013-05-18 00:21:00,66.0,62.0,30.09,East,90,0.0,0.0,87,0.02,,,0.02,WUHU21623XXSP,2013-05-18 04:21:00,
2013-05-18 00:26:00,65.8,61.8,30.09,ESE,112,0.0,0.0,87,0.02,,,0.02,WUHU21623XXSP,2013-05-18 04:26:00,
2013-05-18 00:31:00,65.7,61.7,30.09,ESE,112,0.0,0.0,87,0.02,,,0.02,WUHU21623XXSP,2013-05-18 04:31:00,
2013-05-18 00:36:00,65.5,61.5,30.09,ESE,112,0.0,0.0,87,0.02,,,0.02,WUHU21623XXSP,2013-05-18 04:36:00,
2013-05-18 00:42:00,65.3,61.3,30.09,ESE,112,0.0,0.0,87,0.02,,,0.02,WUHU21623XXSP,2013-05-18 04:42:00,
2013-05-18 00:47:00,65.3,61.3,30.09,East,90,0.0,0.0,87,0.02,,,0.02,WUHU21623XXSP,2013-05-18 04:47:00,
2013-05-18 00:52:00,65.1,61.2,30.09,ESE,112,0.0,0.0,87,0.05,,,0.05,WUHU21623XXSP,2013-05-18 04:52:00,
2013-05-18 00:57:00,64.9,61.0,30.09,ESE,112,0.0,0.0,87,0.05,,,0.05,WUHU21623XXSP,2013-05-18 04:57:00,
2013-05-18 01:02:00,64.8,60.8,30.09,ESE,112,0.0,0.0,87,0.05,,,0.05,WUHU21623XXSP,2013-05-18 05:02:00,
2013-05-18 01:07:00,64.6,60.7,30.09,ESE,112,0.0,0.0,87,0.05,,,0.05,WUHU21623XXSP,2013-05-18 05:07:00,
2013-05-18 01:12:00,64.6,61.0,30.09,ESE,112,0.0,0.0,88,0.07,,,0.07,WUHU21623XXSP,2013-05-18 05:12:00,
2013-05-18 01:17:00,64.4,60.8,30.09,ESE,112,0.0,0.0,88,0.05,,,0.07,WUHU21623XXSP,2013-05-18 05:17:00,
2013-05-18 01:22:00,64.2,60.7,30.09,ESE,112,0.0,0.0,88,0.05,,,0.07,WUHU21623XXSP,2013-05-18 05:22:00,
2013-05-18 01:27:00,64.2,60.7,30.08,ESE,112,0.0,0.0,88,0.05,,,0.07,WUHU21623XXSP,2013-05-18 05:27:00,
2013-05-18 01:32:00,64.2,60.7,30.08,ESE,112,0.0,0.0,88,0.05,,,0.07,WUHU21623XXSP,2013-05-18 05:32:00,
2013-05-18 01:37:00,64.2,60.7,30.08,East,90,0.0,0.0,88,0.07,,,0.09,WUHU21623XXSP,2013-05-18 05:37:00,
2013-05-18 01:42:00,64.2,60.7,30.08,East,90,0.0,0.0,88,0.07,,,0.09,WUHU21623XXSP,2013-05-18 05:42:00,
2013-05-18 01:47:00,64.0,60.5,30.07,East,90,0.0,0.0,88,0.07,,,0.09,WUHU21623XXSP,2013-05-18 05:47:00,
2013-05-18 01:52:00,64.0,60.5,30.07,ESE,112,0.0,0.0,88,0.07,,,0.12,WUHU21623XXSP,2013-05-18 05:52:00,
2013-05-18 01:57:00,63.9,60.3,30.07,East,90,0.0,0.0,88,0.07,,,0.12,WUHU21623XXSP,2013-05-18 05:57:00,
2013-05-18 02:02:00,64.0,60.5,30.07,East,90,0.0,0.0,88,0.07,,,0.12,WUHU21623XXSP,2013-05-18 06:02:00,
2013-05-18 02:07:00,63.9,60.3,30.07,East,90,0.0,0.0,88,0.07,,,0.12,WUHU21623XXSP,2013-05-18 06:07:00,
2013-05-18 02:12:00,63.7,60.1,30.06,East,90,0.0,0.0,88,0.05,,,0.12,WUHU21623XXSP,2013-05-18 06:12:00,
2013-05-18 02:17:00,63.7,60.1,30.06,East,90,0.0,0.0,88,0.07,,,0.14,WUHU21623XXSP,2013-05-18 06:17:00,
2013-05-18 02:22:00,63.7,60.1,30.06,East,90,0.0,0.0,88,0.07,,,0.14,WUHU21623XXSP,2013-05-18 06:22:00,
2013-05-18 02:27:00,63.7,60.1,30.06,East,90,0.0,0.0,88,0.07,,,0.14,WUHU21623XXSP,2013-05-18 06:27:00,
2013-05-18 02:32:00,63.7,60.1,30.06,East,90,0.0,0.0,88,0.07,,,0.14,WUHU21623XXSP,2013-05-18 06:32:00,
2013-05-18 02:37:00,63.5,59.9,30.06,East,90,0.0,0.0,88,0.05,,,0.14,WUHU21623XXSP,2013-05-18 06:37:00,
2013-05-18 02:42:00,63.5,59.9,30.05,East,90,0.0,0.0,88,0.05,,,0.14,WUHU21623XXSP,2013-05-18 06:42:00,
2013-05-18 02:47:00,63.5,59.9,30.05,East,90,0.0,0.0,88,0.05,,,0.14,WUHU21623XXSP,2013-05-18 06:47:00,
2013-05-18 02:52:00,63.3,59.8,30.05,East,90,0.0,0.0,88,0.02,,,0.14,WUHU21623XXSP,2013-05-18 06:52:00,
2013-05-18 02:57:00,63.3,59.8,30.04,East,90,0.0,0.0,88,0.02,,,0.14,WUHU21623XXSP,2013-05-18 06:57:00,
2013-05-18 03:02:00,63.3,59.8,30.05,East,90,0.0,0.0,88,0.02,,,0.14,WUHU21623XXSP,2013-05-18 07:02:00,
2013-05-18 03:07:00,63.3,59.8,30.05,East,90,0.0,0.0,88,0.02,,,0.14,WUHU21623XXSP,2013-05-18 07:07:00,
2013-05-18 03:12:00,63.3,59.8,30.05,ESE,112,0.0,0.0,88,0.02,,,0.14,WUHU21623XXSP,2013-05-18 07:12:00,
2013-05-18 03:18:00,63.1,59.6,30.05,ESE,112,0.0,0.0,88,0.00,,,0.14,WUHU21623XXSP,2013-05-18 07:18:00,
2013-05-18 03:23:00,63.1,59.6,30.05,ESE,112,0.0,0.0,88,0.00,,,0.14,WUHU21623XXSP,2013-05-18 07:23:00,
2013-05-18 03:28:00,63.1,59.6,30.05,ESE,112,0.0,0.0,88,0.00,,,0.14,WUHU21623XXSP,2013-05-18 07:28:00,
2013-05-18 03:33:00,63.1,59.6,30.05,ESE,112,0.0,0.0,88,0.00,,,0.14,WUHU21623XXSP,2013-05-18 07:33:00,
2013-05-18 03:38:00,63.1,59.6,30.05,ESE,112,0.0,0.0,88,0.00,,,0.14,WUHU21623XXSP,2013-05-18 07:38:00,
2013-05-18 03:43:00,63.1,59.6,30.05,East,90,0.0,0.0,88,0.00,,,0.14,WUHU21623XXSP,2013-05-18 07:43:00,
2013-05-18 03:48:00,63.1,59.6,30.05,ESE,112,0.0,0.0,88,0.00,,,0.14,WUHU21623XXSP,2013-05-18 07:48:00,
2013-05-18 03:53:00,63.1,59.6,30.04,East,90,0.0,0.0,88,0.00,,,0.14,WUHU21623XXSP,2013-05-18 07:53:00,
2013-05-18 03:58:00,63.1,59.6,30.05,East,90,0.0,0.0,88,0.00,,,0.14,WUHU21623XXSP,2013-05-18 07:58:00,
2013-05-18 04:03:00,63.1,59.6,30.05,East,90,0.0,0.0,88,0.02,,,0.17,WUHU21623XXSP,2013-05-18 08:03:00,
2013-05-18 04:08:00,63.1,59.6,30.04,ESE,112,0.0,0.0,88,0.05,,,0.19,WUHU21623XXSP,2013-05-18 08:08:00,
2013-05-18 04:13:00,63.1,59.6,30.05,ESE,112,0.0,0.0,88,0.14,,,0.28,WUHU21623XXSP,2013-05-18 08:13:00,
2013-05-18 04:18:00,63.1,59.6,30.05,East,90,0.0,0.0,88,0.25,,,0.39,WUHU21623XXSP,2013-05-18 08:18:00,
2013-05-18 04:23:00,63.1,59.6,30.04,ESE,112,0.0,0.0,88,0.32,,,0.46,WUHU21623XXSP,2013-05-18 08:23:00,
2013-05-18 04:28:00,63.1,59.6,30.04,East,90,0.0,0.0,88,0.37,,,0.51,WUHU21623XXSP,2013-05-18 08:28:00,
2013-05-18 04:33:00,63.1,59.6,30.04,East,90,0.0,0.0,88,0.44,,,0.58,WUHU21623XXSP,2013-05-18 08:33:00,
2013-05-18 04:38:00,63.1,59.6,30.04,ESE,112,0.0,0.0,88,0.49,,,0.63,WUHU21623XXSP,2013-05-18 08:38:00,
2013-05-18 04:43:00,63.1,59.6,30.04,East,90,0.0,0.0,88,0.53,,,0.68,WUHU21623XXSP,2013-05-18 08:43:00,
2013-05-18 04:48:00,63.1,59.6,30.04,ESE,112,0.0,0.0,88,0.53,,,0.68,WUHU21623XXSP,2013-05-18 08:48:00,
2013-05-18 04:53:00,63.1,59.6,30.04,East,90,0.0,0.0,88,0.56,,,0.70,WUHU21623XXSP,2013-05-18 08:53:00,
2013-05-18 04:58:00,63.3,59.8,30.04,East,90,0.0,0.0,88,0.56,,,0.70,WUHU21623XXSP,2013-05-18 08:58:00,
2013-05-18 05:03:00,63.3,59.8,30.04,ESE,112,0.0,0.0,88,0.56,,,0.72,WUHU21623XXSP,2013-05-18 09:03:00,
2013-05-18 05:08:00,63.3,59.8,30.04,East,90,0.0,0.0,88,0.51,,,0.72,WUHU21623XXSP,2013-05-18 09:08:00,
2013-05-18 05:13:00,63.3,59.8,30.04,ESE,112,0.0,0.0,88,0.44,,,0.72,WUHU21623XXSP,2013-05-18 09:13:00,
2013-05-18 05:18:00,63.3,59.8,30.04,ESE,112,0.0,0.0,88,0.31,,,0.72,WUHU21623XXSP,2013-05-18 09:18:00,
2013-05-18 05:23:00,63.3,59.8,30.04,East,90,0.0,0.0,88,0.24,,,0.72,WUHU21623XXSP,2013-05-18 09:23:00,
2013-05-18 05:29:00,63.3,59.8,30.04,East,90,0.0,0.0,88,0.21,,,0.72,WUHU21623XXSP,2013-05-18 09:29:00,
2013-05-18 05:34:00,63.5,59.9,30.04,East,90,0.0,0.0,88,0.12,,,0.72,WUHU21623XXSP,2013-05-18 09:34:00,
2013-05-18 05:39:00,63.5,59.9,30.04,East,90,0.0,0.0,88,0.09,,,0.72,WUHU21623XXSP,2013-05-18 09:39:00,
2013-05-18 05:44:00,63.3,59.8,30.04,East,90,0.0,0.0,88,0.05,,,0.72,WUHU21623XXSP,2013-05-18 09:44:00,
2013-05-18 05:49:00,63.5,59.9,30.04,East,90,0.0,0.0,88,0.05,,,0.72,WUHU21623XXSP,2013-05-18 09:49:00,
2013-05-18 05:54:00,63.3,59.8,30.04,East,90,0.0,0.0,88,0.02,,,0.72,WUHU21623XXSP,2013-05-18 09:54:00,
2013-05-18 05:59:00,63.3,59.8,30.04,East,90,0.0,0.0,88,0.02,,,0.72,WUHU21623XXSP,2013-05-18 09:59:00,
2013-05-18 06:04:00,63.3,59.8,30.05,East,90,0.0,0.0,88,0.00,,,0.72,WUHU21623XXSP,2013-05-18 10:04:00,
2013-05-18 06:09:00,63.5,59.9,30.05,ESE,112,0.0,0.0,88,0.00,,,0.72,WUHU21623XXSP,2013-05-18 10:09:00,
2013-05-18 06:14:00,63.3,59.8,30.05,ESE,112,0.0,0.0,88,0.00,,,0.72,WUHU21623XXSP,2013-05-18 10:14:00,
2013-05-18 06:19:00,63.3,59.8,30.05,ESE,112,0.0,0.0,88,0.00,,,0.72,WUHU21623XXSP,2013-05-18 10:19:00,
2013-05-18 06:24:00,63.3,59.8,30.05,ESE,112,0.0,0.0,88,0.00,,,0.72,WUHU21623XXSP,2013-05-18 10:24:00,
2013-05-18 06:29:00,63.3,59.8,30.05,East,90,0.0,0.0,88,0.00,,,0.72,WUHU21623XXSP,2013-05-18 10:29:00,
2013-05-18 06:34:00,63.3,59.8,30.05,ESE,112,0.0,0.0,88,0.00,,,0.72,WUHU21623XXSP,2013-05-18 10:34:00,
2013-05-18 06:39:00,63.3,59.8,30.05,East,90,0.0,0.0,88,0.00,,,0.72,WUHU21623XXSP,2013-05-18 10:39:00,
2013-05-18 06:44:00,63.3,59.8,30.06,East,90,0.0,0.0,88,0.00,,,0.72,WUHU21623XXSP,2013-05-18 10:44:00,
2013-05-18 06:49:00,63.3,59.8,30.06,ESE,112,0.0,0.0,88,0.00,,,0.72,WUHU21623XXSP,2013-05-18 10:49:00,
2013-05-18 06:54:00,63.3,59.8,30.06,East,90,0.0,0.0,88,0.00,,,0.72,WUHU21623XXSP,2013-05-18 10:54:00,
2013-05-18 06:59:00,63.3,59.8,30.06,East,90,0.0,0.0,88,0.00,,,0.72,WUHU21623XXSP,2013-05-18 10:59:00,
2013-05-18 07:04:00,63.3,59.8,30.06,ESE,112,0.0,0.0,88,0.00,,,0.72,WUHU21623XXSP,2013-05-18 11:04:00,
2013-05-18 07:09:00,63.5,59.9,30.06,ESE,112,0.0,0.0,88,0.00,,,0.72,WUHU21623XXSP,2013-05-18 11:09:00,
2013-05-18 07:14:00,63.5,59.9,30.06,East,90,0.0,0.0,88,0.00,,,0.72,WUHU21623XXSP,2013-05-18 11:14:00,
2013-05-18 07:19:00,63.5,59.9,30.06,ESE,112,0.0,0.0,88,0.00,,,0.72,WUHU21623XXSP,2013-05-18 11:19:00,
2013-05-18 07:24:00,63.5,59.9,30.07,ESE,112,0.0,0.0,88,0.00,,,0.72,WUHU21623XXSP,2013-05-18 11:24:00,
2013-05-18 07:29:00,63.5,59.9,30.07,ESE,112,0.0,0.0,88,0.00,,,0.72,WUHU21623XXSP,2013-05-18 11:29:00,
2013-05-18 07:34:00,63.5,59.9,30.06,East,90,0.0,0.0,88,0.00,,,0.72,WUHU21623XXSP,2013-05-18 11:34:00,
2013-05-18 07:39:00,63.5,59.9,30.06,East,90,0.0,0.0,88,0.00,,,0.72,WUHU21623XXSP,2013-05-18 11:39:00,
2013-05-18 07:44:00,63.7,60.1,30.06,East,90,0.0,0.0,88,0.00,,,0.72,WUHU21623XXSP,2013-05-18 11:44:00,
2013-05-18 07:49:00,63.7,60.1,30.06,ESE,112,0.0,0.0,88,0.00,,,0.72,WUHU21623XXSP,2013-05-18 11:49:00,
2013-05-18 07:54:00,63.7,60.1,30.06,East,90,0.0,0.0,88,0.00,,,0.72,WUHU21623XXSP,2013-05-18 11:54:00,
2013-05-18 07:59:00,63.7,60.1,30.06,East,90,0.0,0.0,88,0.00,,,0.72,WUHU21623XXSP,2013-05-18 11:59:00,
2013-05-18 08:04:00,63.7,60.1,30.07,East,90,0.0,0.0,88,0.00,,,0.72,WUHU21623XXSP,2013-05-18 12:04:00,
2013-05-18 08:10:00,63.7,60.1,30.07,East,90,0.0,0.0,88,0.00,,,0.72,WUHU21623XXSP,2013-05-18 12:10:00,
2013-05-18 08:15:00,63.7,60.1,30.07,East,90,0.0,0.0,88,0.00,,,0.72,WUHU21623XXSP,2013-05-18 12:15:00,
2013-05-18 08:20:00,63.9,60.3,30.07,East,90,0.0,0.0,88,0.00,,,0.72,WUHU21623XXSP,2013-05-18 12:20:00,
2013-05-18 08:25:00,64.0,60.5,30.07,East,90,0.0,0.0,88,0.00,,,0.72,WUHU21623XXSP,2013-05-18 12:25:00,
2013-05-18 08:30:00,64.0,60.5,30.07,ESE,112,0.0,0.0,88,0.00,,,0.72,WUHU21623XXSP,2013-05-18 12:30:00,
2013-05-18 08:35:00,64.2,60.7,30.07,ESE,112,0.0,0.0,88,0.00,,,0.72,WUHU21623XXSP,2013-05-18 12:35:00,
2013-05-18 08:40:00,64.2,60.7,30.07,ESE,112,0.0,0.0,88,0.00,,,0.72,WUHU21623XXSP,2013-05-18 12:40:00,
2013-05-18 08:45:00,64.2,60.7,30.07,ESE,112,0.0,0.0,88,0.00,,,0.72,WUHU21623XXSP,2013-05-18 12:45:00,
2013-05-18 08:50:00,64.2,60.7,30.08,ESE,112,0.0,0.0,88,0.00,,,0.72,WUHU21623XXSP,2013-05-18 12:50:00,
2013-05-18 08:55:00,64.6,61.0,30.07,ESE,112,0.0,0.0,88,0.00,,,0.72,WUHU21623XXSP,2013-05-18 12:55:00,
2013-05-18 09:00:00,64.4,60.8,30.07,ESE,112,0.0,0.0,88,0.00,,,0.72,WUHU21623XXSP,2013-05-18 13:00:00,
2013-05-18 09:05:00,64.6,61.0,30.07,East,90,0.0,0.0,88,0.00,,,0.72,WUHU21623XXSP,2013-05-18 13:05:00,
2013-05-18 09:10:00,64.6,61.0,30.07,ESE,112,0.0,0.0,88,0.00,,,0.72,WUHU21623XXSP,2013-05-18 13:10:00,
2013-05-18 09:15:00,64.6,61.0,30.08,ESE,112,0.0,0.0,88,0.00,,,0.72,WUHU21623XXSP,2013-05-18 13:15:00,
2013-05-18 09:20:00,64.6,61.0,30.08,ESE,112,0.0,0.0,88,0.00,,,0.72,WUHU21623XXSP,2013-05-18 13:20:00,
2013-05-18 09:25:00,64.6,61.0,30.07,ESE,112,0.0,0.0,88,0.00,,,0.72,WUHU21623XXSP,2013-05-18 13:25:00,
2013-05-18 09:30:00,64.8,61.2,30.07,ESE,112,0.0,0.0,88,0.00,,,0.72,WUHU21623XXSP,2013-05-18 13:30:00,
2013-05-18 09:35:00,64.9,61.3,30.07,ESE,112,0.0,0.0,88,0.00,,,0.72,WUHU21623XXSP,2013-05-18 13:35:00,
2013-05-18 09:40:00,64.9,61.3,30.07,ESE,112,0.0,0.0,88,0.00,,,0.72,WUHU21623XXSP,2013-05-18 13:40:00,
2013-05-18 09:46:00,65.1,61.5,30.07,ESE,112,0.0,0.0,88,0.00,,,0.72,WUHU21623XXSP,2013-05-18 13:46:00,
2013-05-18 09:51:00,65.1,61.5,30.07,East,90,0.0,0.0,88,0.00,,,0.72,WUHU21623XXSP,2013-05-18 13:51:00,
2013-05-18 09:56:00,65.3,61.7,30.07,ESE,112,0.0,0.0,88,0.00,,,0.72,WUHU21623XXSP,2013-05-18 13:56:00,
2013-05-18 10:01:00,65.5,61.8,30.07,ESE,112,0.0,0.0,88,0.00,,,0.72,WUHU21623XXSP,2013-05-18 14:01:00,
2013-05-18 10:06:00,65.3,61.7,30.07,East,90,0.0,0.0,88,0.00,,,0.72,WUHU21623XXSP,2013-05-18 14:06:00,
2013-05-18 10:11:00,65.5,61.8,30.07,ESE,112,0.0,0.0,88,0.00,,,0.72,WUHU21623XXSP,2013-05-18 14:11:00,
2013-05-18 10:16:00,65.5,61.8,30.07,ESE,112,0.0,0.0,88,0.00,,,0.72,WUHU21623XXSP,2013-05-18 14:16:00,
2013-05-18 10:21:00,65.5,61.8,30.07,ESE,112,0.0,0.0,88,0.00,,,0.72,WUHU21623XXSP,2013-05-18 14:21:00,
2013-05-18 10:26:00,65.8,62.2,30.07,East,90,0.0,0.0,88,0.00,,,0.72,WUHU21623XXSP,2013-05-18 14:26:00,
2013-05-18 10:31:00,65.8,62.2,30.07,ESE,112,0.0,0.0,88,0.00,,,0.72,WUHU21623XXSP,2013-05-18 14:31:00,
2013-05-18 10:36:00,65.8,62.2,30.07,ESE,112,0.0,0.0,88,0.00,,,0.72,WUHU21623XXSP,2013-05-18 14:36:00,
2013-05-18 10:41:00,66.0,62.3,30.07,ESE,112,0.0,0.0,88,0.00,,,0.72,WUHU21623XXSP,2013-05-18 14:41:00,
2013-05-18 10:46:00,66.0,62.3,30.07,ESE,112,0.0,0.0,88,0.00,,,0.72,WUHU21623XXSP,2013-05-18 14:46:00,
2013-05-18 10:51:00,66.0,62.3,30.07,ESE,112,0.0,0.0,88,0.00,,,0.72,WUHU21623XXSP,2013-05-18 14:51:00,
2013-05-18 10:56:00,66.0,62.3,30.07,ESE,112,0.0,0.0,88,0.00,,,0.72,WUHU21623XXSP,2013-05-18 14:56:00,
2013-05-18 11:01:00,66.2,62.2,30.07,ESE,112,0.0,0.0,87,0.00,,,0.72,WUHU21623XXSP,2013-05-18 15:01:00,
2013-05-18 11:06:00,66.4,62.7,30.07,ESE,112,0.0,0.0,88,0.00,,,0.72,WUHU21623XXSP,2013-05-18 15:06:00,
2013-05-18 11:11:00,66.4,62.7,30.07,ESE,112,0.0,0.0,88,0.00,,,0.72,WUHU21623XXSP,2013-05-18 15:11:00,
2013-05-18 11:16:00,66.7,63.0,30.07,ESE,112,0.0,0.0,88,0.00,,,0.72,WUHU21623XXSP,2013-05-18 15:16:00,
2013-05-18 11:21:00,66.7,63.0,30.07,ESE,112,0.0,0.0,88,0.00,,,0.72,WUHU21623XXSP,2013-05-18 15:21:00,
2013-05-18 11:26:00,66.9,63.2,30.07,ESE,112,0.0,0.0,88,0.00,,,0.72,WUHU21623XXSP,2013-05-18 15:26:00,
2013-05-18 11:31:00,66.9,63.2,30.07,East,90,0.0,0.0,88,0.00,,,0.72,WUHU21623XXSP,2013-05-18 15:31:00,
2013-05-18 11:36:00,67.1,63.4,30.07,ESE,112,0.0,0.0,88,0.00,,,0.72,WUHU21623XXSP,2013-05-18 15:36:00,
2013-05-18 11:41:00,67.1,63.4,30.07,East,90,0.0,0.0,88,0.00,,,0.72,WUHU21623XXSP,2013-05-18 15:41:00,
2013-05-18 11:46:00,67.1,63.4,30.07,ESE,112,0.0,0.0,88,0.00,,,0.72,WUHU21623XXSP,2013-05-18 15:46:00,
2013-05-18 11:51:00,67.1,63.4,30.07,ESE,112,0.0,0.0,88,0.00,,,0.72,WUHU21623XXSP,2013-05-18 15:51:00,
2013-05-18 11:56:00,67.1,63.4,30.07,East,90,0.0,0.0,88,0.00,,,0.72,WUHU21623XXSP,2013-05-18 15:56:00,
2013-05-18 12:01:00,67.1,63.4,30.07,East,90,0.0,0.0,88,0.00,,,0.72,WUHU21623XXSP,2013-05-18 16:01:00,
2013-05-18 12:06:00,67.1,63.4,30.07,East,90,0.0,0.0,88,0.00,,,0.72,WUHU21623XXSP,2013-05-18 16:06:00,
2013-05-18 12:12:00,67.3,63.6,30.07,ESE,112,0.0,0.0,88,0.00,,,0.72,WUHU21623XXSP,2013-05-18 16:12:00,
2013-05-18 12:17:00,67.3,63.6,30.07,ESE,112,0.0,0.0,88,0.00,,,0.72,WUHU21623XXSP,2013-05-18 16:17:00,
2013-05-18 12:22:00,67.6,63.9,30.07,East,90,0.0,0.0,88,0.00,,,0.72,WUHU21623XXSP,2013-05-18 16:22:00,
2013-05-18 12:27:00,67.8,64.1,30.07,ESE,112,0.0,0.0,88,0.00,,,0.72,WUHU21623XXSP,2013-05-18 16:27:00,
2013-05-18 12:32:00,67.8,64.1,30.07,ESE,112,0.0,0.0,88,0.00,,,0.72,WUHU21623XXSP,2013-05-18 16:32:00,
2013-05-18 12:37:00,68.2,64.5,30.07,East,90,0.0,0.0,88,0.00,,,0.72,WUHU21623XXSP,2013-05-18 16:37:00,
2013-05-18 12:42:00,68.5,64.8,30.07,ESE,112,0.0,0.0,88,0.00,,,0.72,WUHU21623XXSP,2013-05-18 16:42:00,
2013-05-18 12:47:00,68.7,65.0,30.07,ESE,112,0.0,0.0,88,0.00,,,0.72,WUHU21623XXSP,2013-05-18 16:47:00,
2013-05-18 12:52:00,68.9,65.2,30.07,East,90,0.0,0.0,88,0.00,,,0.72,WUHU21623XXSP,2013-05-18 16:52:00,
2013-05-18 12:57:00,68.7,65.0,30.07,ESE,112,0.0,0.0,88,0.00,,,0.72,WUHU21623XXSP,2013-05-18 16:57:00,
2013-05-18 13:02:00,68.9,65.2,30.07,ESE,112,0.0,0.0,88,0.00,,,0.72,WUHU21623XXSP,2013-05-18 17:02:00,
2013-05-18 13:07:00,69.4,65.7,30.07,ESE,112,0.0,0.0,88,0.00,,,0.72,WUHU21623XXSP,2013-05-18 17:07:00,
2013-05-18 13:12:00,70.0,66.2,30.07,ESE,112,0.0,0.0,88,0.00,,,0.72,WUHU21623XXSP,2013-05-18 17:12:00,
2013-05-18 13:17:00,70.3,66.6,30.06,ESE,112,0.0,0.0,88,0.00,,,0.72,WUHU21623XXSP,2013-05-18 17:17:00,
2013-05-18 13:22:00,70.3,66.6,30.07,East,90,0.0,0.0,88,0.00,,,0.72,WUHU21623XXSP,2013-05-18 17:22:00,
2013-05-18 13:27:00,70.5,66.4,30.07,East,90,0.0,0.0,87,0.00,,,0.72,WUHU21623XXSP,2013-05-18 17:27:00,
2013-05-18 13:32:00,70.3,66.3,30.07,East,90,0.0,0.0,87,0.00,,,0.72,WUHU21623XXSP,2013-05-18 17:32:00,
2013-05-18 13:37:00,70.5,66.4,30.07,East,90,0.0,0.0,87,0.00,,,0.72,WUHU21623XXSP,2013-05-18 17:37:00,
2013-05-18 13:42:00,70.7,66.6,30.06,ESE,112,0.0,0.0,87,0.00,,,0.72,WUHU21623XXSP,2013-05-18 17:42:00,
2013-05-18 13:47:00,72.3,68.2,30.06,NNE,22,0.0,0.0,87,0.00,,,0.72,WUHU21623XXSP,2013-05-18 17:47:00,
2013-05-18 13:52:00,73.6,69.2,30.06,WNW,292,0.0,0.0,86,0.00,,,0.72,WUHU21623XXSP,2013-05-18 17:52:00,
2013-05-18 13:57:00,73.2,68.1,30.06,North,0,0.0,0.0,84,0.00,,,0.72,WUHU21623XXSP,2013-05-18 17:57:00,
2013-05-18 14:02:00,72.7,67.9,30.06,WNW,292,0.0,0.0,85,0.00,,,0.72,WUHU21623XXSP,2013-05-18 18:02:00,
2013-05-18 14:07:00,72.3,67.9,30.05,WNW,292,0.0,0.0,86,0.00,,,0.72,WUHU21623XXSP,2013-05-18 18:07:00,
2013-05-18 14:12:00,72.3,67.9,30.06,SSW,202,0.0,0.0,86,0.00,,,0.72,WUHU21623XXSP,2013-05-18 18:12:00,
2013-05-18 14:17:00,72.5,67.7,30.06,WNW,292,0.0,0.0,85,0.00,,,0.72,WUHU21623XXSP,2013-05-18 18:17:00,
2013-05-18 14:22:00,72.7,67.9,30.05,West,270,0.0,0.0,85,0.00,,,0.72,WUHU21623XXSP,2013-05-18 18:22:00,
2013-05-18 14:27:00,72.5,67.7,30.05,East,90,0.0,0.0,85,0.00,,,0.72,WUHU21623XXSP,2013-05-18 18:27:00,
2013-05-18 14:33:00,72.3,67.6,30.05,West,270,0.0,0.0,85,0.00,,,0.72,WUHU21623XXSP,2013-05-18 18:33:00,
2013-05-18 14:38:00,72.3,67.6,30.05,West,270,0.0,0.0,85,0.00,,,0.72,WUHU21623XXSP,2013-05-18 18:38:00,
2013-05-18 14:43:00,72.3,67.6,30.05,SSW,202,0.0,0.0,85,0.00,,,0.72,WUHU21623XXSP,2013-05-18 18:43:00,
2013-05-18 14:48:00,73.0,68.3,30.05,WNW,292,0.0,0.0,85,0.00,,,0.72,WUHU21623XXSP,2013-05-18 18:48:00,
2013-05-18 14:53:00,73.0,68.3,30.05,West,270,0.0,0.0,85,0.00,,,0.72,WUHU21623XXSP,2013-05-18 18:53:00,
2013-05-18 14:58:00,73.0,68.3,30.05,East,90,0.0,0.0,85,0.00,,,0.72,WUHU21623XXSP,2013-05-18 18:58:00,
2013-05-18 15:03:00,73.0,67.9,30.05,West,270,0.0,0.0,84,0.00,,,0.72,WUHU21623XXSP,2013-05-18 19:03:00,
2013-05-18 15:08:00,73.2,67.8,30.05,ESE,112,0.0,0.0,83,0.00,,,0.72,WUHU21623XXSP,2013-05-18 19:08:00,
2013-05-18 15:13:00,73.2,67.8,30.04,East,90,0.0,0.0,83,0.00,,,0.72,WUHU21623XXSP,2013-05-18 19:13:00,
2013-05-18 15:18:00,73.2,68.1,30.04,East,90,0.0,0.0,84,0.00,,,0.72,WUHU21623XXSP,2013-05-18 19:18:00,
2013-05-18 15:23:00,73.4,68.3,30.04,SSW,202,0.0,0.0,84,0.00,,,0.72,WUHU21623XXSP,2013-05-18 19:23:00,
2013-05-18 15:28:00,73.8,68.6,30.04,South,180,0.0,0.0,84,0.00,,,0.72,WUHU21623XXSP,2013-05-18 19:28:00,
2013-05-18 15:33:00,73.9,68.5,30.04,NNE,22,0.0,0.0,83,0.00,,,0.72,WUHU21623XXSP,2013-05-18 19:33:00,
2013-05-18 15:38:00,74.3,68.5,30.04,SSW,202,0.0,0.0,82,0.00,,,0.72,WUHU21623XXSP,2013-05-18 19:38:00,
2013-05-18 15:43:00,74.7,68.9,30.03,North,0,0.0,0.0,82,0.00,,,0.72,WUHU21623XXSP,2013-05-18 19:43:00,
2013-05-18 15:48:00,74.8,69.0,30.03,NNE,22,0.0,0.0,82,0.00,,,0.72,WUHU21623XXSP,2013-05-18 19:48:00,
2013-05-18 15:53:00,74.8,68.7,30.03,SSW,202,0.0,0.0,81,0.00,,,0.72,WUHU21623XXSP,2013-05-18 19:53:00,
2013-05-18 15:58:00,75.0,68.9,30.03,West,270,0.0,0.0,81,0.00,,,0.72,WUHU21623XXSP,2013-05-18 19:58:00,
2013-05-18 16:03:00,75.4,68.9,30.03,South,180,0.0,0.0,80,0.00,,,0.72,WUHU21623XXSP,2013-05-18 20:03:00,
2013-05-18 16:08:00,75.4,68.5,30.03,NNE,22,0.0,0.0,79,0.00,,,0.72,WUHU21623XXSP,2013-05-18 20:08:00,
2013-05-18 16:13:00,75.4,68.5,30.03,South,180,0.0,0.0,79,0.00,,,0.72,WUHU21623XXSP,2013-05-18 20:13:00,
2013-05-18 16:56:00,73.6,67.5,30.01,SSW,203,0.0,0.0,81,0.00,,,0.00,WUHU21623XXSP,2013-05-18 20:56:00,
2013-05-18 18:04:00,73.0,67.9,30.01,SSW,202,0.0,0.0,84,0.00,,,0.00,WUHU21623XXSP,2013-05-18 22:04:00,
2013-05-18 18:13:00,73.2,68.1,30.01,SSW,202,0.0,0.0,84,1.31,,,1.31,WUHU21623XXSP,2013-05-18 22:13:00,
2013-05-18 18:18:00,73.2,68.1,30.01,WNW,292,0.0,0.0,84,1.31,,,1.31,WUHU21623XXSP,2013-05-18 22:18:00,
2013-05-18 18:23:00,73.2,68.1,30.01,South,180,0.0,0.0,84,1.31,,,1.31,WUHU21623XXSP,2013-05-18 22:23:00,
2013-05-18 18:28:00,73.4,68.6,30.01,South,180,0.0,0.0,85,1.31,,,1.31,WUHU21623XXSP,2013-05-18 22:28:00,
2013-05-18 18:33:00,73.6,68.8,30.01,WNW,292,0.0,0.0,85,1.31,,,1.31,WUHU21623XXSP,2013-05-18 22:33:00,
2013-05-18 18:39:00,73.8,68.6,30.01,South,180,0.0,0.0,84,1.31,,,1.31,WUHU21623XXSP,2013-05-18 22:39:00,
2013-05-18 18:44:00,73.6,68.5,30.01,West,270,0.0,0.0,84,1.31,,,1.31,WUHU21623XXSP,2013-05-18 22:44:00,
2013-05-18 18:49:00,73.6,68.5,30.01,ESE,112,0.0,0.0,84,1.31,,,1.31,WUHU21623XXSP,2013-05-18 22:49:00,
2013-05-18 18:55:00,73.8,68.6,30.01,ESE,112,0.0,0.0,84,1.31,,,1.31,WUHU21623XXSP,2013-05-18 22:55:00,
2013-05-18 19:00:00,73.8,68.6,30.01,NNE,22,0.0,0.0,84,0.00,,,1.31,WUHU21623XXSP,2013-05-18 23:00:00,
2013-05-18 19:05:00,73.6,68.5,30.01,South,180,0.0,0.0,84,0.00,,,1.31,WUHU21623XXSP,2013-05-18 23:05:00,
2013-05-18 19:11:00,73.6,68.8,30.01,ESE,112,0.0,0.0,85,0.00,,,1.31,WUHU21623XXSP,2013-05-18 23:11:00,
2013-05-18 19:16:00,73.6,68.8,30.01,South,180,0.0,0.0,85,0.00,,,1.31,WUHU21623XXSP,2013-05-18 23:16:00,
2013-05-18 19:21:00,73.2,68.1,30.01,SSW,202,0.0,0.0,84,0.00,,,1.31,WUHU21623XXSP,2013-05-18 23:21:00,
2013-05-18 19:27:00,73.0,68.3,30.01,West,270,0.0,0.0,85,0.00,,,1.31,WUHU21623XXSP,2013-05-18 23:27:00,
2013-05-18 19:32:00,72.9,68.1,30.01,WNW,292,0.0,0.0,85,0.00,,,1.31,WUHU21623XXSP,2013-05-18 23:32:00,
2013-05-18 19:37:00,72.7,68.3,30.01,SSW,202,0.0,0.0,86,0.00,,,1.31,WUHU21623XXSP,2013-05-18 23:37:00,
2013-05-18 19:43:00,72.5,68.1,30.01,SSW,202,0.0,0.0,86,0.00,,,1.31,WUHU21623XXSP,2013-05-18 23:43:00,
2013-05-18 19:48:00,72.3,67.9,30.01,ESE,112,0.0,0.0,86,0.00,,,1.31,WUHU21623XXSP,2013-05-18 23:48:00,
2013-05-18 19:54:00,72.1,68.1,30.01,SSW,202,0.0,0.0,87,0.00,,,1.31,WUHU21623XXSP,2013-05-18 23:54:00,
2013-05-18 19:59:00,72.0,67.9,30.02,SSW,202,0.0,0.0,87,0.00,,,1.31,WUHU21623XXSP,2013-05-18 23:59:00,
2013-05-18 20:04:00,71.8,67.7,30.02,West,270,0.0,0.0,87,0.00,,,1.31,WUHU21623XXSP,2013-05-19 00:04:00,
2013-05-18 20:09:00,71.4,67.3,30.02,WNW,292,0.0,0.0,87,0.00,,,1.31,WUHU21623XXSP,2013-05-19 00:09:00,
2013-05-18 20:14:00,71.2,67.2,30.02,North,0,0.0,0.0,87,0.00,,,1.31,WUHU21623XXSP,2013-05-19 00:14:00,
2013-05-18 20:19:00,71.2,67.2,30.02,South,180,0.0,0.0,87,0.00,,,1.31,WUHU21623XXSP,2013-05-19 00:19:00,
2013-05-18 20:24:00,70.9,66.8,30.02,South,180,0.0,0.0,87,0.00,,,1.31,WUHU21623XXSP,2013-05-19 00:24:00,
2013-05-18 20:30:00,70.9,66.8,30.03,SSW,202,0.0,0.0,87,0.00,,,1.31,WUHU21623XXSP,2013-05-19 00:30:00,
2013-05-18 20:35:00,70.7,66.6,30.02,East,90,0.0,0.0,87,0.00,,,1.31,WUHU21623XXSP,2013-05-19 00:35:00,
2013-05-18 20:40:00,70.7,66.6,30.03,ESE,112,0.0,0.0,87,0.00,,,1.31,WUHU21623XXSP,2013-05-19 00:40:00,
2013-05-18 20:45:00,70.5,66.4,30.03,ESE,112,0.0,0.0,87,0.00,,,1.31,WUHU21623XXSP,2013-05-19 00:45:00,
2013-05-18 20:50:00,70.5,66.4,30.03,SSW,202,0.0,0.0,87,0.00,,,1.31,WUHU21623XXSP,2013-05-19 00:50:00,
2013-05-18 20:55:00,70.3,66.3,30.03,East,90,0.0,0.0,87,0.00,,,1.31,WUHU21623XXSP,2013-05-19 00:55:00,
2013-05-18 21:00:00,70.2,66.1,30.03,South,180,0.0,0.0,87,0.00,,,1.31,WUHU21623XXSP,2013-05-19 01:00:00,
2013-05-18 21:05:00,70.0,65.9,30.03,ESE,112,0.0,0.0,87,0.00,,,1.31,WUHU21623XXSP,2013-05-19 01:05:00,
2013-05-18 21:10:00,70.0,65.9,30.03,South,180,0.0,0.0,87,0.00,,,1.31,WUHU21623XXSP,2013-05-19 01:10:00,
2013-05-18 21:15:00,70.0,65.9,30.03,South,180,0.0,0.0,87,0.00,,,1.31,WUHU21623XXSP,2013-05-19 01:15:00,
2013-05-18 21:20:00,70.0,65.9,30.03,East,90,0.0,0.0,87,0.00,,,1.31,WUHU21623XXSP,2013-05-19 01:20:00,
2013-05-18 21:25:00,70.0,65.9,30.03,ESE,112,0.0,0.0,87,0.00,,,1.31,WUHU21623XXSP,2013-05-19 01:25:00,
2013-05-18 21:31:00,69.8,65.7,30.03,ESE,112,0.0,0.0,87,0.00,,,1.31,WUHU21623XXSP,2013-05-19 01:31:00,
2013-05-18 21:36:00,69.8,65.7,30.03,East,90,0.0,0.0,87,0.00,,,1.31,WUHU21623XXSP,2013-05-19 01:36:00,
2013-05-18 21:41:00,69.6,65.5,30.03,ESE,112,0.0,0.0,87,0.00,,,1.31,WUHU21623XXSP,2013-05-19 01:41:00,
2013-05-18 21:47:00,69.6,65.5,30.03,SSW,202,1.7,1.9,87,0.00,,,1.31,WUHU21623XXSP,2013-05-19 01:47:00,
2013-05-18 21:52:00,69.4,65.4,30.03,SSW,202,0.0,1.9,87,0.00,,,1.31,WUHU21623XXSP,2013-05-19 01:52:00,
2013-05-18 21:57:00,69.1,65.3,30.03,North,0,0.0,1.9,88,0.00,,,1.31,WUHU21623XXSP,2013-05-19 01:57:00,
2013-05-18 22:03:00,68.9,65.2,30.04,North,0,0.0,0.0,88,0.00,,,1.31,WUHU21623XXSP,2013-05-19 02:03:00,
2013-05-18 22:08:00,68.7,65.0,30.03,NNE,22,0.0,0.0,88,0.00,,,1.31,WUHU21623XXSP,2013-05-19 02:08:00,
2013-05-18 22:13:00,68.5,64.8,30.04,NNE,22,0.0,0.0,88,0.00,,,1.31,WUHU21623XXSP,2013-05-19 02:13:00,
2013-05-18 22:19:00,68.5,64.8,30.04,North,0,0.0,0.0,88,0.00,,,1.31,WUHU21623XXSP,2013-05-19 02:19:00,
2013-05-18 22:24:00,68.4,64.6,30.03,North,0,0.0,0.0,88,0.00,,,1.31,WUHU21623XXSP,2013-05-19 02:24:00,
2013-05-18 22:29:00,68.4,64.6,30.05,North,0,0.0,0.0,88,0.00,,,1.31,WUHU21623XXSP,2013-05-19 02:29:00,
2013-05-18 22:35:00,68.2,64.5,30.06,North,0,0.0,0.0,88,0.00,,,1.31,WUHU21623XXSP,2013-05-19 02:35:00,
2013-05-18 22:40:00,68.2,64.5,30.04,East,90,0.0,0.0,88,0.00,,,1.31,WUHU21623XXSP,2013-05-19 02:40:00,
2013-05-18 22:45:00,68.2,64.5,30.05,West,270,0.0,0.0,88,0.00,,,1.31,WUHU21623XXSP,2013-05-19 02:45:00,
2013-05-18 22:51:00,68.0,64.3,30.05,West,270,0.0,0.0,88,0.00,,,1.31,WUHU21623XXSP,2013-05-19 02:51:00,
2013-05-18 22:56:00,68.0,64.3,30.05,East,90,0.0,0.0,88,0.02,,,1.33,WUHU21623XXSP,2013-05-19 02:56:00,
2013-05-18 23:01:00,67.8,64.1,30.05,SSW,202,0.0,0.0,88,0.05,,,1.35,WUHU21623XXSP,2013-05-19 03:01:00,
2013-05-18 23:06:00,67.8,64.1,30.05,NNE,22,0.0,0.0,88,0.05,,,1.35,WUHU21623XXSP,2013-05-19 03:06:00,
2013-05-18 23:11:00,67.8,64.1,30.05,NNE,22,0.0,0.0,88,0.07,,,1.38,WUHU21623XXSP,2013-05-19 03:11:00,
2013-05-18 23:16:00,67.8,64.1,30.05,East,90,0.0,0.0,88,0.07,,,1.38,WUHU21623XXSP,2013-05-19 03:16:00,
2013-05-18 23:21:00,67.8,64.1,30.05,East,90,0.0,0.0,88,0.07,,,1.38,WUHU21623XXSP,2013-05-19 03:21:00,
2013-05-18 23:26:00,67.8,64.1,30.05,North,0,0.0,0.0,88,0.07,,,1.38,WUHU21623XXSP,2013-05-19 03:26:00,
2013-05-18 23:32:00,67.6,63.9,30.05,North,0,0.0,0.0,88,0.07,,,1.38,WUHU21623XXSP,2013-05-19 03:32:00,
2013-05-18 23:37:00,67.6,63.9,30.05,NNE,22,0.0,0.0,88,0.07,,,1.38,WUHU21623XXSP,2013-05-19 03:37:00,
2013-05-18 23:42:00,67.6,63.9,30.04,East,90,0.0,0.0,88,0.07,,,1.38,WUHU21623XXSP,2013-05-19 03:42:00,
2013-05-18 23:47:00,67.5,63.8,30.05,SSW,202,0.0,0.0,88,0.07,,,1.38,WUHU21623XXSP,2013-05-19 03:47:00,
2013-05-18 23:52:00,67.3,63.6,30.04,North,0,0.0,0.0,88,0.09,,,1.40,WUHU21623XXSP,2013-05-19 03:52:00,
2013-05-18 23:57:00,67.3,63.6,30.04,NNE,22,0.0,0.0,88,0.07,,,1.40,WUHU21623XXSP,2013-05-19 03:57:00,